TimeCST,TemperatureF,Dew PointF,Humidity,Sea Level PressureIn,VisibilityMPH,Wind Direction,Wind SpeedMPH,Gust SpeedMPH,PrecipitationIn,Events,Conditions,WindDirDegrees,DateUTC
12:15 AM,48.0,34.0,58,30.43,10.0,NNE,6.9,-,N/A,,Clear,20,2012-11-13 06:15:00
12:35 AM,48.2,34.0,58,30.44,10.0,NNE,4.6,-,N/A,,Clear,20,2012-11-13 06:35:00
12:55 AM,47.5,34.0,59,30.44,10.0,NNE,6.9,-,N/A,,Clear,20,2012-11-13 06:55:00
1:15 AM,47.3,34.0,60,30.45,10.0,North,6.9,-,N/A,,Clear,10,2012-11-13 07:15:00
1:35 AM,47.3,33.6,59,30.45,10.0,NNE,6.9,-,N/A,,Clear,20,2012-11-13 07:35:00
1:55 AM,46.9,33.3,59,30.44,10.0,North,4.6,-,N/A,,Clear,10,2012-11-13 07:55:00
2:15 AM,46.2,33.4,61,30.43,10.0,North,4.6,-,N/A,,Clear,10,2012-11-13 08:15:00
2:35 AM,45.5,33.4,63,30.44,10.0,NNE,4.6,-,N/A,,Clear,20,2012-11-13 08:35:00
2:55 AM,44.6,33.6,65,30.44,10.0,North,5.8,-,N/A,,Clear,10,2012-11-13 08:55:00
3:15 AM,44.6,33.8,66,30.43,10.0,NNE,5.8,-,N/A,,Clear,30,2012-11-13 09:15:00
3:35 AM,44.2,33.8,67,30.44,10.0,NNE,5.8,-,N/A,,Clear,30,2012-11-13 09:35:00
3:55 AM,43.9,33.8,68,30.43,10.0,NNE,4.6,-,N/A,,Clear,30,2012-11-13 09:55:00
4:15 AM,43.0,33.8,70,30.43,10.0,NNE,5.8,-,N/A,,Clear,20,2012-11-13 10:15:00
4:35 AM,42.8,33.4,70,30.44,10.0,NNE,5.8,-,N/A,,Clear,20,2012-11-13 10:35:00
4:55 AM,42.8,33.3,69,30.43,10.0,NNE,5.8,-,N/A,,Clear,30,2012-11-13 10:55:00
5:15 AM,43.2,33.1,68,30.44,10.0,NNE,5.8,-,N/A,,Clear,30,2012-11-13 11:15:00
5:35 AM,42.8,32.9,68,30.45,10.0,NNE,4.6,-,N/A,,Clear,30,2012-11-13 11:35:00
5:55 AM,42.8,32.9,68,30.45,10.0,NNE,5.8,-,N/A,,Clear,30,2012-11-13 11:55:00
6:35 AM,42.4,32.0,67,30.46,10.0,NE,4.6,-,N/A,,Clear,40,2012-11-13 12:35:00
6:55 AM,42.6,31.6,65,30.46,10.0,NE,4.6,-,N/A,,Clear,50,2012-11-13 12:55:00
7:15 AM,43.7,31.3,62,30.48,10.0,NE,4.6,-,N/A,,Clear,50,2012-11-13 13:15:00
7:35 AM,45.7,30.9,56,30.48,10.0,ENE,6.9,-,N/A,,Clear,60,2012-11-13 13:35:00
7:55 AM,48.0,28.6,47,30.48,10.0,ENE,10.4,16.1,N/A,,Clear,60,2012-11-13 13:55:00
8:15 AM,49.3,25.9,40,30.48,10.0,ENE,13.8,19.6,N/A,,Clear,60,2012-11-13 14:15:00
8:35 AM,50.9,25.0,36,30.48,10.0,ENE,12.7,21.9,N/A,,Clear,60,2012-11-13 14:35:00
8:55 AM,52.9,24.6,33,30.48,10.0,ENE,13.8,20.7,N/A,,Clear,60,2012-11-13 14:55:00
9:15 AM,53.6,23.7,31,30.48,10.0,NE,13.8,24.2,N/A,,Clear,50,2012-11-13 15:15:00
9:35 AM,54.5,24.1,31,30.48,10.0,NE,11.5,19.6,N/A,,Clear,50,2012-11-13 15:35:00
9:55 AM,56.8,24.3,28,30.47,10.0,ENE,12.7,18.4,N/A,,Clear,60,2012-11-13 15:55:00
10:15 AM,57.0,23.7,28,30.47,10.0,ENE,15.0,19.6,N/A,,Clear,60,2012-11-13 16:15:00
10:35 AM,56.5,22.5,27,30.46,10.0,ENE,16.1,24.2,N/A,,Clear,70,2012-11-13 16:35:00
10:55 AM,57.7,22.3,25,30.45,10.0,ENE,12.7,20.7,N/A,,Clear,60,2012-11-13 16:55:00
11:15 AM,58.3,24.3,27,30.43,10.0,NE,15.0,19.6,N/A,,Clear,50,2012-11-13 17:15:00
11:35 AM,59.4,23.5,25,30.42,10.0,ENE,15.0,-,N/A,,Clear,70,2012-11-13 17:35:00
11:55 AM,60.1,23.9,25,30.40,10.0,ENE,11.5,16.1,N/A,,Clear,60,2012-11-13 17:55:00
12:15 PM,60.8,23.7,24,30.39,10.0,ENE,8.1,16.1,N/A,,Clear,70,2012-11-13 18:15:00
12:35 PM,-9999,-9999,N/A,-9999,-9999.0,North,-9999.0,-,N/A,,Unknown,0,2012-11-13 18:35:00
12:55 PM,-9999,-9999,N/A,-9999,-9999.0,North,-9999.0,-,N/A,,Unknown,0,2012-11-13 18:55:00
1:35 PM,60.6,25.2,26,30.36,10.0,NE,8.1,-,N/A,,Unknown,50,2012-11-13 19:35:00
1:55 PM,59.9,25.3,27,30.36,10.0,ENE,5.8,-,N/A,,Clear,60,2012-11-13 19:55:00
2:15 PM,59.4,24.8,27,30.35,10.0,East,5.8,-,N/A,,Clear,80,2012-11-13 20:15:00
2:35 PM,59.0,25.9,28,30.34,10.0,Calm,Calm,-,N/A,,Clear,0,2012-11-13 20:35:00
2:55 PM,59.2,25.5,28,30.33,10.0,NE,4.6,-,N/A,,Clear,40,2012-11-13 20:55:00
3:15 PM,59.0,24.6,27,30.33,10.0,NE,4.6,-,N/A,,Clear,40,2012-11-13 21:15:00
3:35 PM,58.8,26.1,29,30.33,10.0,NE,3.5,-,N/A,,Clear,40,2012-11-13 21:35:00
3:55 PM,58.3,25.9,29,30.33,10.0,NNE,3.5,-,N/A,,Clear,20,2012-11-13 21:55:00
4:15 PM,58.1,27.1,31,30.33,10.0,NNE,3.5,-,N/A,,Clear,20,2012-11-13 22:15:00
4:35 PM,57.7,27.0,31,30.33,10.0,North,3.5,-,N/A,,Clear,360,2012-11-13 22:35:00
4:55 PM,56.7,29.3,35,30.32,10.0,Calm,Calm,-,N/A,,Clear,0,2012-11-13 22:55:00
5:15 PM,56.7,28.8,34,30.33,10.0,Calm,Calm,-,N/A,,Clear,0,2012-11-13 23:15:00
5:35 PM,55.6,30.4,38,30.33,10.0,Calm,Calm,-,N/A,,Clear,0,2012-11-13 23:35:00
5:55 PM,55.4,31.3,40,30.33,10.0,Calm,Calm,-,N/A,,Scattered Clouds,0,2012-11-13 23:55:00
6:15 PM,55.2,32.0,41,30.33,10.0,Calm,Calm,-,N/A,,Mostly Cloudy,0,2012-11-14 00:15:00
6:35 PM,55.4,33.1,43,30.34,10.0,Calm,Calm,-,N/A,,Scattered Clouds,0,2012-11-14 00:35:00
6:55 PM,54.5,32.7,44,30.34,10.0,NE,3.5,-,N/A,,Clear,40,2012-11-14 00:55:00
7:15 PM,54.5,31.6,42,30.33,10.0,NE,3.5,-,N/A,,Clear,40,2012-11-14 01:15:00
7:35 PM,54.5,32.0,42,30.34,10.0,Calm,Calm,-,N/A,,Clear,0,2012-11-14 01:35:00
7:55 PM,53.6,32.0,44,30.34,10.0,Calm,Calm,-,N/A,,Clear,0,2012-11-14 01:55:00
8:15 PM,53.2,32.4,45,30.33,10.0,NE,4.6,-,N/A,,Clear,40,2012-11-14 02:15:00
8:35 PM,53.1,32.7,46,30.33,10.0,NNE,5.8,-,N/A,,Clear,30,2012-11-14 02:35:00
8:55 PM,53.1,33.4,47,30.35,10.0,North,3.5,-,N/A,,Clear,350,2012-11-14 02:55:00
9:15 PM,52.2,33.8,50,30.35,10.0,NE,4.6,-,N/A,,Clear,40,2012-11-14 03:15:00
9:35 PM,51.8,34.0,51,30.35,10.0,NNE,3.5,-,N/A,,Clear,30,2012-11-14 03:35:00
9:55 PM,50.9,33.8,52,30.37,10.0,North,3.5,-,N/A,,Clear,360,2012-11-14 03:55:00
10:15 PM,50.9,34.0,52,30.37,10.0,Calm,Calm,-,N/A,,Clear,0,2012-11-14 04:15:00
10:35 PM,48.2,34.9,60,30.38,10.0,Calm,Calm,-,N/A,,Clear,0,2012-11-14 04:35:00
10:55 PM,47.5,35.4,63,30.38,10.0,Calm,Calm,-,N/A,,Clear,0,2012-11-14 04:55:00
11:15 PM,46.0,37.2,71,30.37,10.0,Calm,Calm,-,N/A,,Clear,0,2012-11-14 05:15:00
11:35 PM,48.2,36.1,63,30.37,10.0,North,3.5,-,N/A,,Clear,10,2012-11-14 05:35:00
11:55 PM,49.1,36.0,61,30.37,10.0,North,3.5,-,N/A,,Scattered Clouds,10,2012-11-14 05:55:00